User: anonymous   Login
Location: Carnetin
(48.9010°N, 2.7059°E)
Time: 03:44:05
(UTC+00:00)
Language:

Cosmos 1908 - Orbit

View from above orbital plane
View from above orbital plane
View from above satellite
View from above satellite

Ground track
Ground track

The orbit data is extracted from the following two-line orbital elements,

1 18748U 88001A   22021.77446372  .00002737  00000-0  14103-3 0  9993
2 18748  82.4702 200.1569 0012605 195.0178 165.0682 15.15916552860014
Epoch (UTC): 21 January 2022 18:35:13
Eccentricity: 0.0012605
inclination: 82.4702°
perigee height: 509 km
apogee height: 527 km
right ascension of ascending node: 200.1569°
argument of perigee: 195.0178°
revolutions per day: 15.15916552
mean anomaly at epoch: 165.0682°
orbit number at epoch: 86001

The dashed part of the orbit path shows where the satellite is in the earth's shadow,  

DLR